User: anonymous   Login
Location: Unspecified
(0.0000°N, 0.0000°E)
Time: 16:00:37
(UTC+00:00)
Language:

OPTUS D3 - Orbit

View from above orbital plane
View from above orbital plane
View from above satellite
View from above satellite

Ground track
Ground track

The orbit data is extracted from the following two-line orbital elements,

1 35756U 09044B   15113.52860902 -.00000171  00000-0  00000+0 0  9995
2 35756 000.0591 043.7713 0003717 332.3202 181.4574 01.00272496 20790
Epoch (UTC): 23 April 2015 12:41:11
Eccentricity: 0.0003717
inclination: 0.0591°
perigee height: 35770 km
apogee height: 35801 km
right ascension of ascending node: 43.7713°
argument of perigee: 332.3202°
revolutions per day: 1.00272496
mean anomaly at epoch: 181.4574°
orbit number at epoch: 2079

The dashed part of the orbit path shows where the satellite is in the earth's shadow,  

DLR